Tracking 35331 objects as of 15-Sep-2026
HD Live streaming from Space Station
objects crossing your sky now

STARLINK-32503

Track STARLINK-32503 now!
10-day predictions
STARLINK-32503 is classified as:


NORAD ID: 62157
Int'l Code: 2024-224U
Launch date: November 30, 2024
Source: (USA)
Launch site: AIR FORCE EASTERN TEST RANGE (AFETR)
Your satellite tracking list
Your tracking list is empty




NASA's NSSDC Master Catalog

Two Line Element Set (TLE):
1 62157U 24224U   26258.17638258  .00014300  00000-0  52797-3 0  9999
2 62157  42.9999 175.4113 0001286 274.1665  85.9039 15.27593191100946
Source of the keplerian elements: AFSPC